Location: ???? ?????????
(31.1304°N, 31.7111°E)
Time: 17:46:04
(UTC+00:00)

A-11 Canister half - All Passes

Search period start: 04 March 2021 00:00
Search period end: 14 March 2021 00:00
Orbit: 1516 x 1684 km, 47.2° (Epoch: 03 March)

Date Brightness Start Highest point End Pass type
(mag) Time Alt. Az. Time Alt. Az. Time Alt. Az.
04 Mar - 04:11:18 10° SSE 04:16:46 16° ESE 04:22:13 10° E daylight
04 Mar - 06:10:34 10° SW 06:20:37 69° SE 06:30:38 10° NE daylight
04 Mar - 08:16:28 10° W 08:26:09 47° NNW 08:35:44 10° NE daylight
04 Mar - 10:24:53 10° WNW 10:33:32 31° N 10:41:59 10° ENE daylight
04 Mar - 12:31:32 10° NW 12:40:57 45° NNE 12:50:01 10° E daylight
04 Mar - 14:36:43 10° NW 14:46:26 71° SW 14:55:47 10° SE daylight
04 Mar - 16:45:04 10° W 16:50:06 16° WSW 16:55:05 10° SSW visible
05 Mar - 03:49:12 10° SSE 03:53:55 14° ESE 03:58:37 10° E visible
05 Mar - 05:47:43 10° SSW 05:57:41 65° SE 06:07:39 10° NE daylight
05 Mar - 07:53:22 10° W 08:03:07 49° NNW 08:12:48 10° NE daylight
05 Mar - 10:01:46 10° WNW 10:10:26 31° N 10:18:55 10° ENE daylight
05 Mar - 12:08:32 10° NW 12:17:55 43° NNE 12:26:57 10° E daylight
05 Mar - 14:13:45 10° NW 14:23:32 75° SW 14:32:56 10° SE daylight
05 Mar - 16:21:35 10° W 16:27:16 17° WSW 16:32:53 10° SSW visible
06 Mar - 03:27:19 10° SE 03:31:03 13° ESE 03:34:48 10° E visible
06 Mar - 05:24:53 10° SSW 05:34:46 61° SE 05:44:40 10° ENE daylight
06 Mar - 07:30:15 10° WSW 07:40:05 51° NNW 07:49:51 10° NE daylight
06 Mar - 09:38:38 10° WNW 09:47:20 31° N 09:55:52 10° NE daylight
06 Mar - 11:45:33 10° NW 11:54:53 42° NNE 12:03:53 10° E daylight
06 Mar - 13:50:46 10° NW 14:00:38 80° SW 14:10:05 10° SE daylight
06 Mar - 15:58:13 10° W 16:04:27 19° WSW 16:10:34 10° SSW daylight
07 Mar - 03:05:55 10° SE 03:08:12 11° ESE 03:10:30 10° ESE visible
07 Mar - 05:02:04 10° SSW 05:11:50 57° SE 05:21:40 10° ENE daylight
07 Mar - 07:07:10 10° WSW 07:17:03 54° NNW 07:26:54 10° NE daylight
07 Mar - 09:15:29 10° WNW 09:24:14 31° N 09:32:49 10° NE daylight
07 Mar - 11:22:33 10° NW 11:31:50 40° NNE 11:40:49 10° E daylight
07 Mar - 13:27:47 10° NW 13:37:43 85° SW 13:47:13 10° SE daylight
07 Mar - 15:34:54 10° W 15:41:36 21° SW 15:48:13 10° S daylight
08 Mar - 04:39:16 10° SSW 04:48:56 53° SE 04:58:39 10° ENE daylight
08 Mar - 06:44:06 10° WSW 06:54:02 56° NNW 07:03:57 10° NE daylight
08 Mar - 08:52:20 10° WNW 09:01:08 32° N 09:09:47 10° NE daylight
08 Mar - 10:59:33 10° NW 11:08:47 39° NNE 11:17:43 10° E daylight
08 Mar - 13:04:49 10° NW 13:14:47 89° SW 13:24:20 10° SE daylight
08 Mar - 15:11:38 10° WNW 15:18:47 24° SW 15:25:46 10° S daylight
09 Mar - 04:16:30 10° SSW 04:26:01 49° SE 04:35:38 10° ENE daylight
09 Mar - 06:21:03 10° WSW 06:31:01 59° NNW 06:41:01 10° NE daylight
09 Mar - 08:29:11 10° WNW 08:38:02 32° N 08:46:44 10° NE daylight
09 Mar - 10:36:32 10° NW 10:45:44 38° NNE 10:54:38 10° E daylight
09 Mar - 12:41:50 10° NW 12:51:51 86° NE 13:01:26 10° SE daylight
09 Mar - 14:48:26 10° WNW 14:55:57 26° SW 15:03:17 10° S daylight
10 Mar - 03:53:44 10° SSW 04:03:07 46° SE 04:12:36 10° ENE daylight
10 Mar - 05:58:00 10° WSW 06:08:01 62° NNW 06:18:04 10° NE daylight
10 Mar - 08:06:02 10° WNW 08:14:56 33° N 08:23:43 10° NE daylight
10 Mar - 10:13:31 10° NW 10:22:40 37° NNE 10:31:33 10° E daylight
10 Mar - 12:18:52 10° NW 12:28:54 82° NE 12:38:32 10° SE daylight
10 Mar - 14:25:15 10° WNW 14:33:05 28° SW 14:40:45 10° S daylight
11 Mar - 03:31:01 10° SSW 03:40:13 43° SE 03:49:32 10° ENE visible
11 Mar - 05:34:58 10° WSW 05:45:01 65° NNW 05:55:07 10° NE daylight
11 Mar - 07:42:54 10° WNW 07:51:50 33° N 08:00:41 10° NE daylight
11 Mar - 09:50:30 10° NW 09:59:35 36° NNE 10:08:27 10° E daylight
11 Mar - 11:55:55 10° NW 12:05:58 78° NE 12:15:36 10° SE daylight
11 Mar - 14:02:04 10° WNW 14:10:15 31° SW 14:18:12 10° S daylight
12 Mar - 03:08:19 10° SSW 03:17:20 40° SE 03:26:28 10° ENE visible
12 Mar - 05:11:57 10° WSW 05:22:01 68° NW 05:32:10 10° NE daylight
12 Mar - 07:19:44 10° WNW 07:28:44 34° NNW 07:37:40 10° NE daylight
12 Mar - 09:27:28 10° NW 09:36:31 35° NNE 09:45:20 10° ENE daylight
12 Mar - 11:32:56 10° NW 11:43:00 74° NE 11:52:39 10° ESE daylight
12 Mar - 13:38:57 10° WNW 13:47:24 34° SW 13:55:36 10° S daylight
13 Mar - 02:45:38 10° S 02:54:27 37° SE 03:03:23 10° ENE visible
13 Mar - 04:48:57 10° WSW 04:59:02 72° NW 05:09:13 10° NE daylight
13 Mar - 06:56:35 10° WNW 07:05:38 35° NNW 07:14:38 10° NE daylight
13 Mar - 09:04:25 10° NW 09:13:25 34° NNE 09:22:13 10° ENE daylight
13 Mar - 11:09:59 10° NW 11:20:02 70° NE 11:29:42 10° ESE daylight
13 Mar - 13:15:50 10° WNW 13:24:32 36° SW 13:32:59 10° S daylight
